Regional Weather Roundup
Issued by NWS New Orleans/Baton Rouge, LA

Home | Current Version | Previous Version | Text Only | Print | Product List | Glossary On
Versions: 1 2 3 4 5 6 7 8 9 10 11 12 13 14 15 16 17 18 19 20 21 22 23 24 25 26 27 28 29 30 31 32 33 34 35 36 37 38 39 40 41 42 43 44 45 46 47 48 49 50
661
ASUS44 KLIX 030513
RWRLIX
NEW ORLEANS REGIONAL WEATHER ROUNDUP
NATIONAL WEATHER SERVICE NEW ORLEANS LA
1100 PM CST FRI DEC 02 2016

NOTE: "FAIR" INDICATES FEW OR NO CLOUDS BELOW 12,000 FEET WITH NO
      SIGNIFICANT WEATHER AND/OR OBSTRUCTIONS TO VISIBILITY.
      SKY/WX - SKY CONDITION AND SIGNIFICANT WEATHER.
      TMP - AIR TEMPERATURE.     DP    - DEWPOINT TEMPERATURE.
      RH  - RELATIVE HUMIDITY.   PRES  - PRESSURE.
      HI  - HEAT INDEX.          WCI   - WIND CHILL INDEX.

*  THESE STATIONS ARE NOT NWS OR FAA STATIONS AND ARE NOT UNDER
   NWS QUALITY CONTROL.

LAZ038-040-048-061>063-065>067-069-030600-
SOUTHEAST LOUISIANA

CITY           SKY/WX    TMP DP  RH WIND       PRES   REMARKS
N.O. AUDUBON   NOT AVBL
N.O. INTL ARPT LGT RAIN  60  44  55 E13       30.18F
N.O. LAKEFRONT LGT RAIN  60  46  59 E16       30.19F
N.O. DOWNTOWN* LGT RAIN  60  44  55 E9        30.19F
RESERVE*       CLOUDY    62  42  48 E10       30.18R
SLIDELL        LGT RAIN  55  43  63 NE6       30.20S
BATON ROUGE    LGT RAIN  53  45  74 NE13      30.17F
BOOTHVILLE     CLOUDY    62  53  72 E9        30.17F
BELLE CHASSE   CLOUDY    59  51  75 E10       30.18F
BOGALUSA*      CLOUDY    53  45  73 E3        30.23F
GALLIANO*      CLOUDY    60  47  62 NE12G17   30.17S
NEW ROADS*     CLOUDY    54  42  65 E7        30.17F
GONZALES*      CLOUDY    60  42  52 E7        30.17R
HAMMOND*       CLOUDY    52  45  76 E3        30.20S
HOUMA*         LGT RAIN  55  50  81 NE14      30.15F
PORT FOURCHON* CLOUDY    64  54  68 E14       30.16S

$$

MSZ070-080>082-030600-
SOUTHERN MISSISSIPPI

CITY           SKY/WX    TMP DP  RH WIND       PRES   REMARKS
MCCOMB         CLOUDY    54  37  52 E5        30.20F
GULFPORT       CLOUDY    59  37  44 NE13      30.21F
BILOXI         CLOUDY    56  40  55 NE8       30.21F
PASCAGOULA     CLOUDY    56  37  49 N7        30.23F

$$

COASTAL OBSERVATIONS
LAKE AND NEARSHORE STATIONS

STATION/POSITION TIME  TEMP    WIND        PRES    WAVE
                       AIR SEA DIR/SP/G            HT/PER
                 (UTC) (F)     (DEG/KT/KT) (MB)    (FT/S)
PASCAGOULA       0448   59      40/  9/ 12 1022.9
WAVELAND YACHT   0448   57 61   60/ 10/ 12 1023.1
GRAND ISLE       0448   65 65   80/ 12/ 17 1021.2
SOUTHWEST PASS   0442           80/ 23/ 27   N/A
NEW CANAL        0448   60 63   80/ 13/ 19 1021.2
SHELL BEACH      0448   62 63   60/ 13/ 18 1022.8

OFFSHORE STATIONS

STATION/POSITION TIME  TEMP    WIND        PRES    WAVE
                       AIR SEA DIR/SP/G            HT/PER
                 (UTC) (F)     (DEG/KT/KT) (MB)    (FT/S)
64 S DAUPHIN ISL 0450   70 76   70/ 19/ 23 1021.3    6/ 6

$$





USA.gov is the U.S. government's official web portal to all federal, state and local government web resources and services.